Theta_e
312 312 312 312 313 313 313 313 313 314 314 314 315 315 316 317 317 318 328 325 323 320 319 323 326 326 326 327 327 338 345 348 344 344 341 340 342 344 344 345 348 350 350 350 351
312 312 312 312 313 313 313 313 314 314 314 314 315 316 316 318 322 320 328 328 321 319 320 330 327 325 326 327 339 341 343 344 341 335 334 336 342 342 340 338 345 352 351 351 351
312 312 312 313 313 313 313 314 314 314 314 315 315 316 316 320 334 334 332 320 320 319 326 325 326 327 328 330 339 337 335 335 337 334 334 334 342 341 341 340 340 352 352 352 352
312 312 312 313 313 313 313 314 314 314 315 315 316 316 317 322 339 329 320 320 319 319 325 327 327 328 329 330 339 337 336 337 334 334 335 334 335 342 343 342 340 351 350 352 352
311 312 312 312 313 313 313 314 314 315 315 315 316 316 317 328 335 329 322 320 321 324 326 326 328 328 328 331 337 336 337 336 334 335 335 335 337 337 345 346 349 352 351 352 352
311 311 312 312 312 313 313 314 314 314 315 316 316 316 317 331 331 329 323 322 325 325 326 327 329 329 330 331 333 336 335 335 335 335 336 335 337 342 345 347 350 352 352 352 352
311 311 311 312 312 313 313 314 314 315 315 315 316 316 317 321 331 330 323 326 326 324 324 328 329 328 328 327 332 334 333 331 333 335 335 335 336 338 343 350 352 353 352 352 352
310 311 311 312 312 313 313 314 315 315 315 315 316 319 320 326 326 329 328 327 326 324 324 329 328 328 328 328 330 330 330 330 334 335 334 334 334 337 339 345 350 353 354 354 352
310 310 311 311 312 313 314 314 315 315 315 315 326 332 330 327 325 326 328 327 326 324 324 327 326 327 328 326 324 326 326 329 336 334 334 331 335 337 339 342 346 350 350 354 352
309 310 310 311 312 313 314 315 315 316 316 317 316 325 325 327 326 324 327 327 326 324 325 327 327 325 324 323 323 326 328 330 337 335 333 331 330 336 340 342 347 348 350 354 352
308 309 310 311 311 312 314 316 325 329 324 327 326 322 325 326 324 326 328 327 325 324 323 326 325 324 324 324 327 327 326 327 331 331 330 331 330 330 334 339 349 349 351 354 353
308 308 309 310 311 312 313 323 321 320 320 322 324 326 327 326 326 326 328 327 325 325 325 324 325 325 328 329 327 326 325 326 327 331 330 331 330 329 331 335 351 350 353 355 356
307 308 309 310 311 312 317 319 321 320 321 321 321 323 326 325 327 326 326 327 326 325 325 324 328 329 329 327 326 325 325 326 329 329 327 329 331 331 331 337 353 352 352 355 356
307 307 308 310 311 318 317 321 319 320 320 322 322 323 324 324 324 325 326 327 326 326 326 326 328 330 329 329 326 324 329 330 329 327 326 330 327 329 333 336 336 355 353 356 356
306 307 307 309 315 317 317 319 318 321 327 325 323 324 324 323 325 325 326 327 326 326 329 329 329 328 329 327 327 327 331 331 331 327 327 328 326 331 334 338 338 346 351 358 357
305 306 307 309 310 315 315 316 319 322 326 325 324 323 321 323 323 325 327 326 326 327 330 328 330 330 328 328 328 329 329 330 329 325 326 332 331 334 335 337 338 341 343 357 357
305 305 307 308 314 316 315 317 320 323 323 323 323 322 321 322 322 324 328 325 325 329 331 332 330 330 330 328 328 329 326 327 328 328 331 332 332 334 335 336 335 333 355 355 358
306 306 307 308 311 315 316 318 323 323 321 323 324 324 323 323 322 324 328 328 326 328 329 331 331 328 328 327 330 328 325 326 332 330 332 334 333 336 335 335 336 349 352 355 357
306 308 310 309 309 315 316 319 322 325 324 324 323 325 323 323 323 322 326 328 329 327 329 331 333 333 329 329 328 328 327 327 327 329 328 328 338 335 336 338 338 339 339 353 353
307 308 315 315 311 312 316 319 320 322 323 323 323 325 326 324 322 322 325 327 329 329 329 328 332 330 330 330 330 329 329 325 326 333 334 332 339 338 339 337 337 339 339 349 352
310 319 316 316 313 315 316 317 320 321 322 322 321 323 325 326 325 323 324 328 328 329 328 326 330 331 332 329 328 328 326 328 323 325 327 330 332 337 337 337 337 335 337 348 351
311 322 319 316 315 316 314 317 318 319 320 321 322 323 325 326 328 325 326 329 328 329 329 328 328 330 331 330 329 328 327 330 331 331 332 331 337 336 335 335 337 339 342 346 349
316 322 317 315 314 314 316 316 316 317 319 322 322 322 322 326 328 331 329 325 326 328 330 329 328 328 327 328 329 332 331 329 327 329 328 332 336 335 338 336 338 340 343 346 349
316 323 316 315 314 315 318 321 321 319 320 321 322 322 322 325 326 328 328 326 325 326 326 330 333 334 327 333 331 332 331 331 328 329 328 330 336 337 339 334 332 335 336 349 350
318 323 319 317 315 315 316 320 321 321 321 320 322 322 322 326 327 326 327 327 325 324 326 329 331 332 330 329 328 329 331 332 330 330 330 327 337 338 336 335 335 333 336 342 352
316 315 315 318 321 317 320 317 322 322 322 320 322 322 322 325 325 331 331 332 333 327 326 326 331 331 332 331 330 331 330 331 329 328 328 334 340 333 336 332 333 335 336 338 348
312 311 314 319 320 321 321 322 320 321 322 323 322 324 323 329 328 327 327 328 332 332 334 330 331 330 330 332 331 331 331 332 332 333 333 329 336 335 335 338 333 331 333 338 346
Wind_Speed
6 7 8 8 8 9 9 10 11 10 10 10 9 9 8 6 6 3 1 5 10 11 8 6 9 11 9 12 14 6 6 8 8 16 5 15 24 31 24 19 19 8 30 31 28
7 7 7 8 9 9 10 11 11 11 11 11 10 10 9 9 3 4 4 9 11 8 5 6 12 13 14 15 1 6 5 10 11 12 4 10 29 17 6 17 20 28 28 27 29
7 7 8 9 9 10 10 11 12 12 12 12 11 10 10 8 1 2 5 6 4 2 2 4 6 13 17 14 3 6 4 0 10 7 11 14 18 19 18 3 16 30 31 28 28
8 9 9 9 10 10 11 10 11 12 13 12 11 11 10 5 3 2 3 2 1 4 1 5 7 12 5 6 14 6 13 4 4 3 11 8 9 10 21 15 27 30 31 29 27
9 10 10 10 11 10 11 11 11 11 12 12 11 10 10 4 4 2 5 2 4 5 6 10 14 16 6 9 7 3 10 20 7 3 4 1 11 8 19 25 34 30 29 28 26
10 11 11 11 11 11 11 11 10 10 10 11 11 9 7 6 4 4 1 3 6 4 6 7 13 15 11 14 5 9 12 9 13 13 3 13 5 20 20 31 33 30 29 27 26
12 12 12 12 12 11 11 11 10 10 9 9 9 9 8 9 6 6 2 4 6 8 11 9 8 12 18 10 15 10 3 10 13 19 5 8 5 5 18 34 33 32 28 26 26
12 13 13 13 12 12 11 10 10 9 9 7 6 8 6 4 6 7 4 4 8 5 6 8 6 12 12 12 11 5 6 6 6 5 8 8 6 7 12 29 31 31 29 29 30
13 13 13 14 13 13 11 11 10 8 9 6 2 4 8 9 12 12 8 9 7 6 8 8 7 9 11 5 6 6 7 7 2 12 4 3 3 8 21 23 26 28 22 29 28
14 15 14 14 13 12 11 10 9 9 9 7 8 5 10 9 11 11 8 9 6 6 9 10 6 3 5 1 6 6 2 6 5 5 5 4 6 6 21 21 27 25 26 32 30
14 15 14 13 11 12 8 7 7 3 7 9 3 13 9 4 9 11 10 8 9 10 6 13 1 7 13 10 4 7 8 7 3 5 4 2 6 10 11 17 23 28 28 31 28
13 14 14 11 9 8 6 4 7 8 11 17 21 22 19 9 7 10 13 8 11 7 11 6 9 12 9 2 5 7 7 9 8 3 6 5 8 11 5 11 31 30 29 28 25
13 13 13 9 5 2 4 6 10 10 6 15 20 22 20 12 13 15 18 17 10 9 10 9 9 12 2 4 6 5 5 8 4 7 9 4 8 8 6 19 27 30 28 28 28
12 11 11 5 2 0 3 3 7 6 3 6 9 21 24 15 11 24 24 16 6 11 10 8 15 5 3 4 4 6 8 2 6 6 4 2 6 8 6 8 11 26 25 31 34
12 10 7 6 3 3 3 3 8 3 2 7 13 12 18 18 3 13 23 20 12 12 5 10 6 5 4 7 7 8 5 6 6 6 5 11 4 7 5 6 5 18 16 34 34
12 11 6 8 9 2 9 6 4 1 6 1 7 9 11 19 20 11 18 18 17 11 10 10 16 3 6 8 5 6 5 6 5 1 3 6 3 4 2 4 2 27 18 33 30
13 12 9 11 7 3 2 2 1 4 6 5 6 9 10 9 15 12 10 8 7 3 6 9 8 3 8 5 4 2 4 3 5 3 6 6 3 7 6 11 9 17 30 32 31
13 13 11 13 13 5 3 0 3 8 12 8 6 12 14 10 13 15 10 8 10 8 5 7 6 10 7 6 5 6 8 5 3 2 5 3 5 2 14 20 41 13 31 31 33
12 8 8 7 16 9 2 3 6 5 2 13 14 11 10 14 8 11 10 11 11 12 8 3 6 9 11 6 6 4 3 8 2 4 4 4 3 3 13 9 17 17 26 30 30
11 6 8 3 10 10 2 5 8 10 12 10 11 5 2 13 13 12 10 10 12 15 16 9 6 5 8 3 0 2 3 4 4 2 5 5 1 4 7 8 7 9 24 18 29
7 4 13 10 13 7 4 7 6 20 23 6 9 7 6 12 9 9 13 11 16 15 16 9 6 9 1 3 6 3 4 3 4 4 3 3 5 7 12 11 8 15 18 27 32
4 3 12 13 5 6 4 3 5 17 26 3 6 6 6 8 7 9 8 2 8 22 7 10 5 4 8 7 11 9 9 7 5 6 3 4 5 6 5 19 11 23 43 23 33
5 6 8 14 3 6 8 11 20 18 18 2 5 6 7 5 5 9 4 10 22 8 4 3 2 2 9 9 7 4 5 2 1 2 4 1 5 3 9 14 23 23 17 5 34
4 2 5 14 16 8 5 7 13 21 16 6 10 9 7 4 5 6 9 6 11 8 10 5 3 4 6 2 3 3 6 6 4 2 4 4 4 1 4 2 6 4 4 14 14
3 4 9 3 7 10 8 9 14 11 7 7 8 7 7 4 8 5 3 6 3 5 4 4 2 5 7 8 9 12 10 11 8 10 6 9 9 6 4 3 5 10 14 7 4
8 7 12 17 16 10 7 10 12 12 6 6 5 9 7 3 5 6 8 6 4 3 3 3 2 4 5 6 9 15 18 16 11 9 6 14 7 6 8 12 11 2 12 15 8
12 12 7 13 9 3 4 6 5 9 9 11 14 3 4 13 18 12 9 10 4 3 5 2 2 1 5 7 9 7 8 3 5 13 7 3 9 13 8 13 8 8 19 16 12
Wind_Direction
18 17 15 7 7 7 4 359 357 3 0 357 344 340 333 328 298 251 293 306 293 302 308 349 1 353 306 280 266 169 98 238 231 247 145 127 98 106 113 89 54 103 152 155 154
3 5 0 355 355 2 354 351 354 355 354 349 340 337 336 338 323 222 281 287 287 284 279 347 335 323 293 270 250 128 180 198 215 273 80 139 128 130 87 110 98 107 138 150 156
347 348 345 345 349 348 347 349 349 346 348 343 340 335 338 340 29 202 290 292 283 259 220 8 344 296 287 274 184 122 211 183 294 347 9 28 105 116 130 172 155 142 146 158 160
335 335 336 335 337 340 336 343 343 344 343 342 337 334 335 330 46 24 1 324 25 85 33 357 286 269 278 288 144 148 242 212 195 78 19 31 339 146 157 181 159 156 156 163 167
326 325 325 326 327 329 330 337 338 340 341 338 335 336 335 329 259 326 32 42 82 76 16 320 294 287 307 324 153 262 208 230 247 265 163 248 24 3 136 142 152 152 159 168 172
319 319 320 319 319 321 325 327 328 330 335 337 333 330 325 293 304 301 67 90 54 329 313 302 320 338 306 317 1 358 354 347 317 294 67 78 21 66 135 149 154 156 165 173 177
315 315 314 315 315 314 315 316 318 321 328 332 333 325 292 244 295 314 239 59 2 277 300 316 297 327 323 321 325 280 317 288 247 253 137 107 34 140 139 148 155 162 171 178 179
310 311 312 310 309 308 310 310 311 310 315 324 331 327 271 180 218 259 249 250 273 270 291 332 313 297 284 294 316 298 258 267 298 212 154 118 258 230 201 154 159 167 178 181 175
311 310 310 310 310 309 309 306 298 296 296 300 300 339 273 235 232 224 221 238 243 291 266 283 306 262 291 243 309 288 251 241 321 274 283 128 204 235 187 171 161 164 167 165 163
312 310 310 309 312 310 311 302 294 290 283 281 238 291 240 234 231 199 213 230 260 262 267 253 252 241 301 352 239 276 265 323 146 258 226 194 308 187 158 152 150 143 148 152 155
311 310 309 310 313 314 320 334 336 49 321 229 243 263 303 160 147 195 201 223 240 256 248 256 170 243 242 242 287 1 341 336 267 157 120 62 280 280 194 158 144 150 148 151 153
311 308 307 309 309 308 314 26 16 334 298 272 262 257 255 211 206 220 203 202 226 244 239 293 230 250 269 60 23 341 325 305 305 169 118 203 258 270 226 159 151 151 153 153 156
311 309 306 307 309 273 317 336 331 352 277 286 245 234 237 213 240 227 199 212 242 227 253 220 254 230 335 355 342 310 262 282 300 358 345 329 285 262 268 128 148 156 161 165 164
314 311 309 297 221 91 9 11 320 338 312 259 208 231 214 213 248 238 202 200 231 240 245 241 254 224 308 279 260 269 270 239 16 8 270 32 282 293 182 127 114 149 165 159 155
314 308 309 274 213 163 360 357 323 328 316 211 201 176 191 191 229 210 198 198 243 259 228 256 248 256 194 256 230 249 15 6 341 319 351 306 27 296 87 74 109 96 189 155 164
311 304 287 258 224 47 334 335 347 21 243 231 123 177 186 203 237 241 167 195 231 254 273 251 296 238 194 237 279 338 342 341 304 251 333 270 129 301 72 159 197 162 200 151 158
308 294 268 226 188 159 81 31 79 230 282 216 156 170 209 187 224 236 175 184 212 213 284 301 242 240 267 244 221 137 6 325 336 10 221 251 60 242 205 199 173 184 145 152 162
306 287 263 231 217 186 49 0 226 233 254 296 267 185 193 206 210 240 169 185 225 242 217 221 268 220 188 212 196 199 175 165 266 203 245 291 249 303 82 56 46 120 145 142 158
314 287 265 219 201 175 206 201 204 230 187 298 309 188 193 211 189 218 185 198 202 223 217 258 264 267 187 164 177 270 284 219 209 320 2 234 47 331 19 32 70 58 337 144 158
324 272 242 180 187 172 204 253 237 271 307 327 309 148 238 201 210 189 197 204 222 213 214 253 321 357 131 121 283 171 252 15 350 304 278 320 142 215 36 44 86 158 256 203 168
341 318 137 175 145 187 207 230 271 273 285 318 345 342 342 310 236 197 207 210 208 232 209 212 174 280 70 110 220 285 272 253 158 154 197 298 278 205 184 159 172 209 297 201 170
326 267 176 174 168 214 238 247 267 281 301 308 315 296 302 340 311 205 191 249 277 209 224 197 160 240 236 223 200 206 215 175 126 290 248 174 275 134 141 109 86 324 345 211 170
326 271 190 187 218 240 252 248 258 268 277 228 275 305 311 346 350 359 55 36 36 52 44 309 100 29 333 341 336 56 317 210 86 84 262 136 261 167 138 173 135 120 271 38 164
324 246 172 207 237 280 301 288 269 260 261 339 299 303 305 315 310 328 351 29 58 81 51 33 69 138 203 226 241 301 309 302 194 146 253 234 115 320 100 73 20 154 292 56 153
258 302 5 211 231 235 254 287 302 268 192 264 328 274 302 357 328 280 304 326 7 56 54 81 57 29 330 341 328 314 290 265 258 233 192 249 147 209 222 182 312 268 17 20 144
335 354 333 302 310 184 236 259 282 309 140 232 264 295 315 299 303 24 7 40 34 44 76 31 322 16 308 306 303 300 300 301 300 280 288 102 103 163 74 96 75 18 318 283 303
10 341 333 289 311 286 325 310 295 313 313 282 199 276 291 5 347 353 14 17 42 34 28 73 106 95 272 310 308 314 261 312 335 15 321 278 168 165 149 157 117 173 189 255 278